GFSFLT1_850_temp_156.txt.gz
Temp
9 9 9 9 9 10 10 10 10 9 9 9 9 9 9 8 8 7 7 7 7 6 6 6 6 5 4 2 1 0 -0 -1
9 9 9 9 9 10 10 10 9 9 8 8 8 9 8 7 7 6 7 7 6 6 5 5 4 2 1 -0 -1 -2 -2 -4
8 9 9 8 9 9 9 9 9 9 9 9 8 8 7 7 6 6 6 6 5 4 4 4 2 1 0 -1 -3 -5 -5 -4
8 8 8 9 9 9 9 9 9 9 9 8 8 7 6 6 6 6 6 5 5 4 4 4 2 0 -1 -2 -4 -5 -5 -4
9 8 8 8 9 9 9 9 9 9 8 7 7 6 6 6 6 6 5 5 4 4 3 3 2 -0 -2 -3 -5 -5 -6 -6
9 9 9 8 8 8 8 9 9 8 7 7 7 6 6 6 5 5 5 4 4 3 3 2 1 -0 -3 -3 -3 -4 -5 -6
10 10 8 8 7 7 8 9 8 8 7 7 7 6 5 5 5 5 4 4 3 3 2 1 -0 -1 -2 -3 -3 -4 -4 -5
9 9 7 7 7 7 7 7 8 8 7 7 6 5 5 5 4 4 4 3 3 2 1 0 -1 -1 -2 -3 -3 -5 -5 -5
9 9 8 8 8 7 7 7 7 7 7 6 5 4 4 4 4 3 3 2 2 1 0 -0 -0 -1 -2 -2 -3 -5 -5 -6
8 8 9 7 8 7 7 6 6 6 6 5 4 4 4 3 3 2 2 1 0 0 -0 -0 0 -1 -2 -2 -3 -4 -5 -6
8 9 8 7 7 6 5 5 5 5 5 4 3 3 3 3 2 2 1 0 -0 -1 -1 -0 -0 -1 -2 -3 -3 -4 -5 -6
9 9 8 8 7 6 5 5 4 5 5 3 2 2 2 2 2 1 0 -0 -1 -1 -1 -1 -1 -1 -1 -2 -3 -4 -5 -5
9 9 9 8 6 5 5 4 4 4 3 2 2 2 2 1 1 1 0 -1 -1 -2 -1 -1 -1 -1 -2 -2 -3 -3 -4 -5
9 9 8 7 6 4 4 4 4 3 2 2 2 1 1 1 1 0 -0 -1 -2 -2 -2 -1 -2 -1 -2 -2 -3 -4 -4 -5
9 8 7 6 5 5 3 3 3 3 2 1 1 1 1 1 0 -1 -1 -2 -2 -2 -2 -2 -3 -2 -3 -3 -3 -4 -4 -5
9 9 7 6 5 4 3 2 2 2 1 1 0 0 0 -0 -1 -2 -2 -2 -3 -3 -3 -3 -3 -3 -3 -4 -4 -4 -4 -4
10 9 8 7 5 5 3 3 2 1 1 0 -0 -0 -1 -1 -2 -2 -2 -2 -3 -4 -4 -4 -3 -4 -4 -5 -5 -4 -4 -4
12 11 10 7 6 5 4 3 2 1 0 -0 -1 -1 -2 -2 -2 -3 -3 -3 -4 -5 -4 -4 -4 -4 -5 -5 -5 -5 -4 -5
11 10 8 7 6 4 3 2 2 0 -1 -1 -1 -2 -3 -3 -4 -4 -4 -4 -5 -5 -5 -5 -5 -6 -6 -6 -6 -6 -5 -5

GFSFLT1_850_temp_159.txt.gz
Temp
10 10 10 10 10 10 10 11 10 10 10 9 9 9 9 8 8 7 7 8 8 8 7 7 7 6 5 4 3 3 3 2
9 9 9 9 9 10 10 10 10 10 9 9 9 8 8 8 7 7 7 7 7 6 6 6 6 5 4 2 1 2 2 -1
8 8 9 9 10 9 9 9 9 9 9 8 8 8 8 7 7 7 7 6 6 5 5 5 5 5 4 2 1 -0 -1 -2
7 8 8 8 9 9 9 9 9 8 8 8 8 8 7 6 6 6 6 6 5 5 4 4 4 4 3 1 -0 -2 -4 -4
9 8 8 8 9 8 8 8 8 8 8 8 8 7 6 6 6 6 6 5 5 4 4 4 4 3 2 0 -1 -2 -3 -4
8 9 9 9 8 8 8 8 8 8 8 7 7 6 6 6 6 6 6 5 4 4 4 4 3 2 1 -0 -0 -2 -3 -4
8 9 9 8 8 8 8 8 8 8 7 7 7 6 6 6 6 6 5 4 3 4 4 4 3 2 1 0 -0 -2 -3 -4
6 9 8 8 8 8 7 7 7 7 7 6 6 6 6 6 6 5 4 3 4 4 3 3 2 1 0 -0 -1 -2 -2 -4
6 9 9 8 8 8 7 7 6 6 6 6 6 6 6 5 5 4 3 4 4 3 2 2 1 1 0 -1 -2 -2 -2 -4
6 8 9 9 8 8 7 6 6 5 5 6 6 5 5 5 4 3 3 3 2 2 1 1 0 0 -0 -1 -2 -2 -3 -4
4 6 8 8 8 7 6 6 5 5 5 5 5 5 5 4 3 3 2 2 1 1 0 -0 -0 0 -1 -1 -1 -2 -3 -3
4 5 7 8 7 7 6 5 5 5 5 5 4 4 4 3 2 2 2 1 0 -0 -0 -1 -1 -0 -1 -1 -2 -2 -2 -3
4 5 7 8 8 7 6 4 4 5 4 4 4 3 3 2 2 1 1 0 -0 -1 -1 -1 -1 -1 -1 -1 -2 -2 -2 -2
3 5 7 8 7 6 4 4 4 4 4 3 3 3 2 1 1 0 0 -0 -1 -1 -2 -2 -2 -1 -1 -2 -2 -3 -2 -2
4 6 7 7 6 5 4 4 4 4 3 3 2 2 1 1 0 -0 -1 -1 -1 -1 -2 -3 -2 -2 -2 -3 -3 -3 -3 -2
6 7 8 7 5 4 4 4 3 3 3 2 2 1 1 -0 -1 -1 -1 -1 -2 -2 -3 -3 -3 -3 -3 -3 -3 -3 -3 -3
7 7 7 7 7 5 4 3 3 2 2 1 1 1 0 -1 -1 -1 -2 -2 -2 -3 -3 -3 -3 -3 -4 -4 -4 -4 -3 -4
9 10 10 8 7 5 4 3 2 2 1 1 0 -0 -1 -1 -1 -2 -3 -3 -3 -3 -3 -4 -4 -4 -4 -4 -5 -5 -4 -4
11 11 9 8 7 5 4 2 2 1 1 0 -0 -1 -1 -2 -2 -3 -4 -4 -4 -4 -4 -4 -5 -5 -5 -5 -5 -5 -5 -4

GFSFLT1_850_temp_165.txt.gz
Temp
16 14 14 12 11 9 8 9 11 11 12 11 11 11 11 11 11 10 10 9 9 9 9 9 8 8 7 8 8 6 2 2
16 14 13 12 10 9 8 9 11 11 11 10 10 10 10 10 10 9 9 9 9 9 8 8 8 7 6 6 5 3 2 1
16 13 12 11 10 9 8 8 11 10 8 8 7 8 8 9 8 9 9 8 8 8 8 7 7 5 2 3 2 4 0 -1
16 13 12 11 9 8 8 7 9 8 7 8 9 9 9 8 8 8 8 8 7 7 7 6 6 3 2 1 1 1 -0 -1
16 13 11 10 9 8 8 7 7 6 8 7 9 7 7 6 5 6 6 7 7 7 6 6 5 3 2 1 2 1 0 -3
17 13 12 10 9 8 7 7 6 7 8 6 7 7 6 6 6 6 6 7 6 6 5 5 3 1 2 2 2 -1 -3 -3
17 14 12 10 9 8 7 6 6 6 8 7 6 5 5 4 4 4 3 4 4 5 4 3 2 3 3 2 1 -3 -4 -3
17 14 12 10 9 7 6 6 6 7 9 8 8 7 7 4 4 3 3 1 0 3 3 2 2 3 3 2 -1 -2 -4 -2
16 14 11 10 9 7 6 6 5 7 8 8 7 7 6 7 5 4 2 1 2 3 2 2 3 3 3 1 -3 -2 -4 -5
15 14 11 10 8 6 6 6 5 6 7 7 7 6 7 6 6 4 3 3 3 3 3 2 2 2 2 1 -2 -0 -3 -5
14 13 11 9 7 6 5 5 5 6 7 7 6 7 7 6 4 4 4 4 3 3 2 2 2 2 2 1 -0 0 -2 -5
13 12 10 8 7 5 4 4 3 5 7 6 7 7 7 5 4 4 4 3 3 2 2 2 2 2 2 1 1 -0 -1 -3
12 11 9 8 6 4 3 3 5 7 7 7 7 7 6 5 4 4 4 3 2 1 1 1 1 1 1 1 0 -0 -1 -1
11 9 7 7 5 3 2 2 5 8 6 8 7 6 5 4 4 4 2 1 1 1 1 1 1 1 0 -0 -1 -1 -2 -2
11 8 6 5 3 2 1 2 5 7 7 6 6 5 5 4 3 2 1 1 0 0 -0 0 0 0 -1 -1 -1 -2 -2 -2
10 7 5 3 1 2 2 4 5 7 6 5 6 5 4 3 2 1 -0 -0 -1 -2 -2 -2 -2 -1 -1 -1 -2 -2 -3 -4
9 7 5 2 1 2 3 5 6 5 5 5 4 4 3 2 1 -1 -1 -0 -0 -0 -1 -1 -2 -2 -2 -2 -2 -2 -2 -3
8 6 5 3 1 4 5 6 4 4 4 4 4 3 2 1 -0 -1 0 -0 -0 -1 -2 -2 -2 -2 -3 -3 -3 -2 -3 -3
8 6 5 3 2 0 0 1 3 3 3 3 3 2 2 0 0 -0 -1 -1 -1 -2 -3 -3 -3 -3 -3 -3 -3 -3 -3 -4

GFSFLT1_850_temp_168.txt.gz
Temp
17 16 16 14 13 11 9 8 9 9 10 11 10 10 11 11 11 11 11 11 11 11 11 10 10 10 9 9 8 7 5 7
18 17 16 14 12 11 9 8 8 9 10 10 10 10 10 11 11 11 11 11 10 10 10 9 9 9 9 8 8 6 3 6
19 17 15 14 12 10 9 8 8 9 10 10 9 10 10 11 11 10 10 10 9 10 9 9 8 7 8 7 6 5 3 4
19 16 15 13 12 10 9 8 8 8 9 8 8 9 9 10 10 10 9 9 9 9 9 8 8 7 6 5 5 4 3 2
19 16 14 13 11 10 9 8 8 8 8 9 10 10 10 9 9 9 9 9 9 8 8 7 7 6 5 4 3 2 1 1
20 15 14 12 11 10 9 8 7 7 8 10 10 8 8 8 8 8 9 8 8 7 7 7 6 6 5 4 2 0 1 2
20 16 14 12 11 10 8 8 7 7 8 8 8 8 8 8 8 8 8 7 7 7 6 6 6 5 4 3 1 0 0 1
20 15 13 12 11 9 8 7 7 7 7 7 7 8 8 8 8 7 6 5 5 6 6 5 5 4 4 2 -1 0 -2 -0
19 15 13 12 10 9 8 7 6 6 6 7 7 8 8 7 7 5 4 3 6 5 5 5 4 4 3 2 -0 -0 -1 -2
18 15 13 11 10 9 8 7 6 5 5 6 7 7 8 8 7 7 5 6 5 5 4 4 3 3 2 1 -0 1 -0 -1
17 15 12 11 10 8 7 7 6 5 4 5 7 8 8 7 6 7 6 5 5 4 4 3 2 3 2 0 1 1 0 0
16 14 12 10 9 7 7 6 5 4 4 5 7 7 7 7 7 6 6 4 4 4 3 2 2 2 1 1 1 1 1 1
15 14 11 10 8 6 6 6 5 4 3 5 7 8 7 6 6 6 4 3 3 3 2 2 2 1 1 1 1 1 1 1
13 12 10 9 7 6 5 5 4 3 2 5 7 7 7 6 6 5 3 3 2 2 2 1 0 0 1 0 0 -0 0 0
12 10 9 8 7 5 5 4 4 4 4 5 6 6 6 6 5 4 3 2 2 2 1 -0 -0 0 0 -0 -1 -0 -1 -1
12 9 8 7 7 5 5 4 3 3 3 5 6 6 5 5 4 3 2 2 1 -1 -1 -1 0 -0 -0 -0 -0 -1 -2 -3
11 9 7 6 5 4 3 3 3 3 5 5 6 5 5 4 3 2 2 -0 -1 -3 -4 -1 0 -0 -0 -0 -0 -1 -2 -2
11 9 6 5 4 3 3 3 3 3 3 4 4 4 3 3 3 2 1 0 -1 -2 -1 -1 -1 -1 -1 -1 -1 -2 -2 -2
11 9 6 4 4 3 3 3 3 2 3 2 3 3 3 3 2 2 1 -1 -1 -1 -1 -1 -1 -1 -2 -2 -2 -2 -2 -3

GFSFLT1_850_temp_171.txt.gz
Temp
17 16 15 14 13 12 12 11 10 10 10 10 11 11 11 12 11 11 11 11 11 11 11 11 11 11 11 10 10 10 11 10
17 16 15 14 14 13 12 11 10 9 9 10 10 11 11 11 10 11 10 10 10 10 11 10 11 11 10 10 9 9 10 10
16 16 15 14 14 13 12 11 9 8 9 9 10 10 10 10 10 10 10 10 10 10 10 10 10 10 9 9 9 8 8 8
17 16 16 15 14 14 13 12 10 8 8 8 8 8 8 8 9 9 9 9 9 9 10 9 9 9 9 8 8 8 7 6
18 16 15 15 14 14 12 12 11 9 8 8 8 9 10 9 9 9 9 9 9 9 9 9 9 9 8 8 8 7 6 5
18 17 16 16 14 13 12 11 11 10 8 7 7 9 9 9 8 8 9 8 8 8 8 8 8 8 7 7 7 7 5 4
20 16 15 14 13 12 11 11 10 9 7 7 8 8 8 8 8 8 8 8 8 8 8 8 7 7 6 6 6 5 5 4
18 14 13 11 11 11 11 10 9 8 7 7 7 7 8 8 9 9 8 8 8 8 7 7 6 6 5 6 5 4 3 3
18 14 13 12 11 10 10 9 9 8 7 7 7 7 7 7 8 8 8 8 8 6 6 6 6 5 5 5 4 3 3 3
17 13 12 10 10 10 10 9 9 8 7 7 6 6 7 7 8 8 8 7 6 6 6 5 5 4 4 5 3 3 2 2
14 12 11 9 9 9 9 9 8 7 7 6 6 6 7 7 8 7 7 6 6 5 5 5 4 4 4 4 3 2 1 1
13 11 11 11 10 9 8 8 7 7 6 6 6 6 6 6 6 7 6 5 5 5 5 4 4 3 3 3 2 1 1 0
12 11 10 9 8 8 8 7 7 6 6 6 5 5 5 6 6 6 5 5 6 5 4 4 3 3 3 2 1 0 -0 -0
12 10 10 9 8 8 7 7 6 6 6 5 5 5 6 6 5 5 5 6 5 4 3 3 2 2 2 1 0 -0 -0 -0
12 10 10 9 8 8 7 6 6 6 6 5 5 5 5 5 5 5 4 6 4 3 2 2 2 2 1 0 -0 -1 -1 -0
12 11 9 8 7 7 6 6 5 6 5 5 6 4 4 4 4 2 4 5 3 2 2 1 1 1 -0 -0 -1 -1 -0 -0
12 11 10 9 8 6 6 6 5 5 4 4 5 3 4 3 1 2 4 4 2 1 1 2 0 -1 -1 -1 -1 -1 -1 -0
11 11 10 9 7 6 6 5 5 4 3 3 4 3 1 2 1 3 4 2 1 1 2 1 -1 -2 -1 -1 -2 -2 -1 -1
12 11 9 9 7 6 5 4 4 3 2 2 3 3 2 0 2 2 2 0 1 1 0 -2 -2 -2 -2 -2 -2 -2 -2 -2

GFSFLT1_850_temp_174.txt.gz
Temp
20 18 16 15 14 13 13 12 11 10 10 9 10 10 10 11 11 12 12 12 11 11 11 11 11 11 11 11 11 11 11 11
19 18 14 14 13 13 12 12 11 11 10 9 9 10 10 10 11 11 11 11 10 10 10 11 10 10 10 11 11 11 11 11
17 16 14 13 13 13 12 12 12 11 10 10 10 10 10 10 10 10 10 10 10 9 10 10 10 10 10 10 10 10 10 10
16 15 14 13 13 12 13 12 12 12 10 9 9 9 9 8 9 9 9 9 9 9 9 9 9 9 9 9 9 9 9 8
19 16 13 14 13 13 13 13 12 12 10 10 11 10 8 9 9 8 8 8 8 8 8 8 9 9 9 9 9 8 7 8
17 14 15 16 13 13 13 12 11 11 10 10 9 9 9 9 8 7 7 7 7 8 8 8 8 8 8 8 8 7 7 7
20 18 14 13 11 11 11 11 11 11 10 9 8 8 9 8 7 7 7 7 7 7 7 7 8 8 7 7 7 6 6 6
20 16 13 11 10 10 10 11 11 10 9 9 8 9 8 8 8 7 7 7 7 7 7 7 7 7 7 7 7 6 6 6
19 17 14 12 11 11 10 10 10 10 9 9 9 9 8 8 8 7 7 7 6 6 6 7 6 7 6 6 6 6 6 5
19 18 14 10 8 8 8 9 10 10 9 8 7 7 8 7 7 6 6 6 5 6 6 6 6 5 5 5 5 5 5 4
16 13 10 8 7 6 7 8 9 8 7 7 7 7 7 8 7 7 6 5 5 6 6 5 4 5 5 4 4 4 4 4
11 10 8 7 6 6 6 8 9 9 6 7 7 7 7 6 7 6 6 5 6 5 4 3 6 5 4 4 3 3 4 3
10 9 8 7 7 7 8 8 8 7 7 7 7 7 6 6 6 6 4 5 5 4 3 5 5 4 3 3 3 3 3 3
11 10 9 9 8 8 8 7 7 7 7 7 6 6 6 6 5 5 4 4 5 3 4 5 4 3 3 2 2 3 3 2
10 10 9 9 9 10 9 7 7 7 7 6 6 5 5 5 4 4 4 4 3 2 4 4 3 3 2 2 2 2 2 1
11 11 10 8 7 7 7 8 7 8 7 6 5 5 5 4 4 3 3 3 0 2 3 4 2 2 2 2 2 2 1 0
12 12 10 9 8 8 7 7 7 7 6 5 5 5 4 4 4 3 3 1 1 1 2 3 2 2 1 2 1 1 0 -1
11 11 11 11 9 9 7 7 6 6 6 5 4 4 4 4 2 3 1 1 -1 0 2 2 1 1 1 1 0 -0 -1 -2
12 11 11 9 8 7 7 6 5 5 4 4 3 3 3 3 3 2 2 -1 -1 0 1 1 0 1 1 -0 -0 -1 -2 -3

GFSFLT1_850_temp_177.txt.gz
Temp
21 19 18 16 15 14 13 12 12 11 11 11 11 11 11 11 11 12 12 12 12 12 12 12 12 12 11 11 11 10 10 11
19 16 15 13 13 14 13 12 12 11 11 11 11 11 10 10 10 11 11 11 12 12 12 11 11 11 11 10 10 10 10 10
18 16 14 14 14 14 13 12 11 11 11 11 11 10 9 9 10 10 10 10 11 11 11 11 10 10 10 10 10 10 10 10
20 16 16 14 14 15 14 13 11 11 10 10 10 9 9 9 9 9 10 9 9 10 10 10 9 9 9 10 10 10 10 10
20 18 15 13 15 15 15 14 12 11 10 10 10 10 9 9 9 9 9 9 8 9 9 9 9 9 8 9 9 9 9 9
20 20 18 17 13 14 14 12 11 11 10 10 9 9 9 9 8 8 8 8 7 8 8 9 9 8 8 8 8 8 9 8
20 18 18 15 12 11 11 11 11 10 10 10 9 9 9 8 8 8 8 8 7 7 7 8 8 7 7 7 7 7 7 7
19 18 15 13 11 11 10 10 10 10 9 9 11 12 9 9 9 8 8 8 7 8 6 7 7 7 6 6 6 6 6 6
18 17 17 13 13 12 11 10 9 8 9 9 9 8 9 9 9 9 8 8 7 8 5 5 6 6 6 6 5 5 5 5
15 16 16 15 13 12 10 9 7 7 8 8 8 7 7 7 8 8 8 7 6 7 5 5 6 6 6 5 5 4 5 4
14 16 14 12 10 8 7 6 6 6 7 7 7 6 7 6 7 7 7 7 7 6 5 5 5 6 5 4 4 4 4 4
12 11 10 9 7 6 6 5 5 5 7 6 6 5 5 6 6 6 7 7 7 5 5 5 5 5 3 3 4 4 3 3
11 11 10 8 7 6 6 5 5 6 7 6 6 6 5 4 4 6 6 6 6 4 4 4 4 2 3 4 4 3 2 3
9 9 9 9 8 7 7 6 6 7 7 6 5 3 4 4 4 5 5 5 5 4 3 4 3 1 3 4 3 2 2 2
8 8 8 7 7 7 6 7 8 8 8 6 4 5 4 4 5 5 4 4 4 3 3 2 1 1 3 3 2 1 2 2
8 8 8 7 7 7 6 7 8 7 6 4 5 3 4 4 5 4 3 3 3 2 2 1 -0 1 2 2 2 1 1 1
10 10 9 9 8 7 7 6 7 6 5 5 4 5 4 5 4 3 3 3 3 2 0 -2 0 2 2 1 1 1 1 1
11 11 11 10 9 8 8 7 7 5 5 5 5 5 4 4 4 3 3 3 2 0 1 -2 -0 1 0 1 1 0 -0 0
11 11 11 11 10 8 7 7 5 5 4 5 5 4 3 3 3 3 3 2 1 0 -1 -2 -1 -0 -0 0 0 -0 -0 -0